STARLINK-35728

Last updated on Fri Dec 19 2025 00:02:05 GMT+0000 (Coordinated Universal Time)

1 66544U 25265AE 25352.43860477 .00087078 00000+0 14725-2 0 9991 2 66544 42.9998 20.5589 0001907 273.5077 86.5565 15.50600659 4641
UTC large
Height (km)
Speed (km/s)
/
Latitude / Longitude
Inclination (degrees)
Orbital Period (minutes)
Azimuth
Elevation
Range (km)
Doppler Factor

Next 0 passes for location: London (51.5072 / 0.1276)

Sorry there are no passes over London.